N415DB PADU-PACD

Flight info

Callsign N415DB
Flight time 1h 16m
Altitude 15000
Route DUT G8 ZEBUV T390 TESPE G8 UNETE
Aircraft C208/L-SBDFGRY/LU2

Departure

Time 2026-05-09 06:43
Airport Tom Madsen (Dutch Harbor) Airport (PADU)

Arrival

Time 2026-05-09 08:00
Airport Cold Bay Airport (PACD)
Time Latitude Longitude Altitude Speed Heading
2026-05-09 06:33 53.89516 -166.54214 13 ft 0 kts 95°
2026-05-09 06:40 53.89516 -166.54209 13 ft 3 kts 95°
2026-05-09 06:41 53.89526 -166.54113 12 ft 14 kts 69°
2026-05-09 06:41 53.89535 -166.53967 8 ft 12 kts 109°
2026-05-09 06:41 53.89484 -166.53861 5 ft 8 kts 112°
2026-05-09 06:41 53.89506 -166.53874 6 ft 0 kts 316°
2026-05-09 06:42 53.89551 -166.53946 8 ft 31 kts 315°
2026-05-09 06:42 53.89818 -166.54388 17 ft 74 kts 315°
2026-05-09 06:42 53.90241 -166.55052 112 ft 92 kts 319°
2026-05-09 06:43 53.90783 -166.55660 298 ft 96 kts 345°
2026-05-09 06:43 53.91439 -166.55492 498 ft 104 kts 25°
2026-05-09 06:43 53.92034 -166.54688 698 ft 114 kts 39°
2026-05-09 06:43 53.92606 -166.53715 967 ft 118 kts 40°
2026-05-09 06:44 53.93215 -166.52780 1244 ft 118 kts 37°
2026-05-09 06:44 53.93837 -166.51851 1541 ft 119 kts 37°
2026-05-09 06:44 53.94456 -166.50906 1820 ft 120 kts 38°
2026-05-09 06:44 53.95079 -166.49950 2086 ft 121 kts 38°
2026-05-09 06:45 53.95700 -166.48993 2356 ft 120 kts 38°
2026-05-09 06:45 53.96322 -166.48035 2618 ft 121 kts 38°
2026-05-09 06:45 53.96935 -166.47092 2885 ft 120 kts 38°
2026-05-09 06:45 53.97554 -166.46137 3148 ft 120 kts 38°
2026-05-09 06:46 53.98172 -166.45183 3409 ft 120 kts 38°
2026-05-09 06:46 53.98789 -166.44231 3672 ft 119 kts 39°
2026-05-09 06:46 53.99399 -166.43289 3936 ft 117 kts 39°
2026-05-09 06:46 54.00000 -166.42360 4199 ft 117 kts 39°
2026-05-09 06:47 54.00599 -166.41436 4465 ft 116 kts 39°
2026-05-09 06:47 54.01195 -166.40515 4722 ft 116 kts 39°
2026-05-09 06:47 54.01791 -166.39593 4957 ft 117 kts 39°
2026-05-09 06:47 54.02404 -166.38646 5171 ft 120 kts 38°
2026-05-09 06:48 54.03029 -166.37680 5384 ft 123 kts 38°
2026-05-09 06:48 54.03666 -166.36694 5596 ft 125 kts 38°
2026-05-09 06:48 54.04303 -166.35707 5809 ft 126 kts 38°
2026-05-09 06:48 54.04955 -166.34699 6023 ft 127 kts 38°
2026-05-09 06:49 54.05614 -166.33674 6249 ft 129 kts 38°
2026-05-09 06:49 54.06280 -166.32642 6435 ft 130 kts 37°
2026-05-09 06:49 54.06953 -166.31597 6634 ft 131 kts 38°
2026-05-09 06:49 54.07627 -166.30548 6834 ft 132 kts 38°
2026-05-09 06:50 54.08306 -166.29497 7035 ft 132 kts 38°
2026-05-09 06:50 54.08985 -166.28441 7240 ft 132 kts 38°
2026-05-09 06:50 54.09666 -166.27380 7442 ft 133 kts 37°
2026-05-09 06:50 54.10350 -166.26317 7646 ft 133 kts 37°
2026-05-09 06:51 54.11037 -166.25248 7851 ft 134 kts 37°
2026-05-09 06:51 54.11725 -166.24177 8058 ft 134 kts 37°
2026-05-09 06:51 54.12414 -166.23105 8266 ft 134 kts 38°
2026-05-09 06:51 54.13095 -166.22041 8472 ft 134 kts 37°
2026-05-09 06:52 54.13786 -166.20967 8686 ft 134 kts 37°
2026-05-09 06:52 54.14476 -166.19889 8896 ft 135 kts 37°
2026-05-09 06:52 54.15168 -166.18808 9109 ft 135 kts 37°
2026-05-09 06:52 54.15860 -166.17728 9324 ft 135 kts 37°
2026-05-09 06:53 54.16551 -166.16646 9538 ft 134 kts 37°
2026-05-09 06:53 54.17241 -166.15568 9749 ft 134 kts 37°
2026-05-09 06:53 54.17930 -166.14493 9943 ft 134 kts 38°
2026-05-09 06:53 54.18617 -166.13416 10138 ft 134 kts 37°
2026-05-09 06:54 54.19305 -166.12340 10335 ft 134 kts 37°
2026-05-09 06:54 54.19992 -166.11264 10533 ft 134 kts 37°
2026-05-09 06:54 54.20678 -166.10188 10739 ft 134 kts 36°
2026-05-09 06:54 54.21354 -166.09130 10939 ft 133 kts 37°
2026-05-09 06:55 54.22037 -166.08058 11125 ft 133 kts 37°
2026-05-09 06:55 54.22722 -166.06984 11307 ft 134 kts 37°
2026-05-09 06:55 54.23415 -166.05898 11485 ft 136 kts 37°
2026-05-09 06:55 54.24113 -166.04800 11670 ft 136 kts 36°
2026-05-09 06:56 54.24813 -166.03703 11852 ft 137 kts 37°
2026-05-09 06:56 54.25516 -166.02595 12042 ft 137 kts 37°
2026-05-09 06:56 54.26220 -166.01487 12225 ft 138 kts 36°
2026-05-09 06:56 54.26927 -166.00377 12413 ft 138 kts 37°
2026-05-09 06:57 54.27634 -165.99262 12596 ft 138 kts 37°
2026-05-09 06:57 54.28342 -165.98148 12784 ft 138 kts 37°
2026-05-09 06:57 54.29050 -165.97032 12971 ft 139 kts 37°
2026-05-09 06:57 54.29759 -165.95915 13159 ft 138 kts 36°
2026-05-09 06:58 54.30467 -165.94793 13349 ft 139 kts 39°
2026-05-09 06:58 54.31123 -165.93573 13543 ft 139 kts 41°
2026-05-09 06:58 54.31792 -165.92380 13716 ft 139 kts 40°
2026-05-09 06:58 54.32456 -165.91182 13886 ft 139 kts 41°
2026-05-09 06:59 54.33118 -165.89983 14050 ft 138 kts 40°
2026-05-09 06:59 54.33779 -165.88788 14225 ft 138 kts 41°
2026-05-09 06:59 54.34438 -165.87588 14394 ft 138 kts 41°
2026-05-09 06:59 54.35097 -165.86394 14566 ft 138 kts 40°
2026-05-09 07:00 54.35753 -165.85202 14736 ft 137 kts 42°
2026-05-09 07:00 54.36408 -165.84009 14910 ft 137 kts 41°
2026-05-09 07:00 54.37054 -165.82836 15067 ft 138 kts 41°
2026-05-09 07:00 54.37741 -165.81590 15077 ft 148 kts 41°
2026-05-09 07:01 54.38458 -165.80288 15077 ft 152 kts 41°
2026-05-09 07:01 54.39189 -165.78957 15079 ft 154 kts 43°
2026-05-09 07:01 54.39927 -165.77603 15079 ft 156 kts 41°
2026-05-09 07:01 54.40673 -165.76245 15075 ft 157 kts 41°
2026-05-09 07:02 54.41423 -165.74873 15075 ft 158 kts 42°
2026-05-09 07:02 54.42176 -165.73497 15080 ft 158 kts 41°
2026-05-09 07:02 54.42932 -165.72117 15074 ft 158 kts 43°
2026-05-09 07:02 54.43677 -165.70752 15074 ft 158 kts 41°
2026-05-09 07:03 54.44433 -165.69371 15072 ft 158 kts 43°
2026-05-09 07:03 54.45188 -165.67987 15071 ft 158 kts 43°
2026-05-09 07:03 54.45942 -165.66606 15072 ft 158 kts 42°
2026-05-09 07:03 54.46688 -165.65240 15072 ft 158 kts 43°
2026-05-09 07:04 54.47440 -165.63859 15073 ft 158 kts 42°
2026-05-09 07:04 54.48193 -165.62479 15073 ft 158 kts 43°
2026-05-09 07:04 54.48945 -165.61097 15074 ft 158 kts 42°
2026-05-09 07:04 54.49697 -165.59718 15071 ft 158 kts 42°
2026-05-09 07:05 54.50449 -165.58333 15071 ft 158 kts 43°
2026-05-09 07:05 54.51203 -165.56946 15074 ft 158 kts 42°
2026-05-09 07:05 54.51956 -165.55562 15073 ft 159 kts 43°
2026-05-09 07:05 54.52709 -165.54172 15075 ft 158 kts 41°
2026-05-09 07:06 54.53462 -165.52788 15072 ft 158 kts 42°
2026-05-09 07:06 54.54216 -165.51399 15072 ft 159 kts 43°
2026-05-09 07:06 54.54967 -165.50011 15073 ft 158 kts 42°
2026-05-09 07:06 54.55720 -165.48622 15072 ft 159 kts 42°
2026-05-09 07:07 54.56473 -165.47231 15074 ft 159 kts 42°
2026-05-09 07:07 54.57227 -165.45841 15074 ft 159 kts 43°
2026-05-09 07:07 54.57980 -165.44445 15066 ft 159 kts 41°
2026-05-09 07:07 54.58734 -165.43054 15066 ft 159 kts 43°
2026-05-09 07:08 54.59486 -165.41660 15066 ft 159 kts 43°
2026-05-09 07:08 54.60230 -165.40282 15067 ft 159 kts 43°
2026-05-09 07:08 54.60984 -165.38886 15067 ft 159 kts 43°
2026-05-09 07:08 54.61736 -165.37489 15068 ft 159 kts 41°
2026-05-09 07:09 54.62488 -165.36096 15068 ft 159 kts 43°
2026-05-09 07:09 54.63244 -165.34692 15067 ft 159 kts 42°
2026-05-09 07:09 54.63997 -165.33296 15071 ft 159 kts 43°
2026-05-09 07:09 54.64748 -165.31897 15071 ft 159 kts 43°
2026-05-09 07:10 54.65500 -165.30499 15068 ft 158 kts 43°
2026-05-09 07:10 54.66253 -165.29099 15073 ft 159 kts 43°
2026-05-09 07:10 54.67004 -165.27698 15068 ft 159 kts 42°
2026-05-09 07:10 54.67757 -165.26299 15070 ft 159 kts 43°
2026-05-09 07:11 54.68499 -165.24914 15066 ft 159 kts 43°
2026-05-09 07:11 54.69251 -165.23514 15067 ft 159 kts 42°
2026-05-09 07:11 54.70005 -165.22106 15067 ft 159 kts 43°
2026-05-09 07:11 54.70754 -165.20705 15067 ft 159 kts 42°
2026-05-09 07:12 54.71506 -165.19304 15067 ft 159 kts 43°
2026-05-09 07:12 54.72255 -165.17900 15068 ft 159 kts 42°
2026-05-09 07:12 54.73005 -165.16500 15068 ft 159 kts 43°
2026-05-09 07:12 54.73755 -165.15095 15068 ft 159 kts 43°
2026-05-09 07:13 54.74505 -165.13691 15070 ft 159 kts 43°
2026-05-09 07:13 54.75254 -165.12289 15061 ft 159 kts 43°
2026-05-09 07:13 54.76002 -165.10883 15062 ft 159 kts 42°
2026-05-09 07:13 54.76742 -165.09497 15067 ft 159 kts 43°
2026-05-09 07:14 54.77491 -165.08089 15065 ft 159 kts 43°
2026-05-09 07:14 54.78241 -165.06682 15065 ft 159 kts 43°
2026-05-09 07:14 54.78991 -165.05273 15065 ft 159 kts 43°
2026-05-09 07:14 54.79741 -165.03862 15065 ft 159 kts 43°
2026-05-09 07:15 54.80493 -165.02450 15067 ft 159 kts 44°
2026-05-09 07:15 54.81242 -165.01037 15068 ft 159 kts 42°
2026-05-09 07:15 54.81992 -164.99627 15068 ft 159 kts 44°
2026-05-09 07:15 54.82741 -164.98213 15069 ft 159 kts 43°
2026-05-09 07:16 54.83482 -164.96817 15067 ft 159 kts 43°
2026-05-09 07:16 54.84232 -164.95401 15067 ft 159 kts 43°
2026-05-09 07:16 54.84981 -164.93986 15072 ft 159 kts 43°
2026-05-09 07:16 54.85731 -164.92572 15071 ft 159 kts 44°
2026-05-09 07:17 54.86478 -164.91156 15072 ft 159 kts 43°
2026-05-09 07:17 54.87226 -164.89745 15069 ft 158 kts 43°
2026-05-09 07:17 54.87971 -164.88331 15068 ft 158 kts 44°
2026-05-09 07:17 54.88718 -164.86918 15068 ft 158 kts 43°
2026-05-09 07:18 54.89452 -164.85528 15070 ft 158 kts 44°
2026-05-09 07:18 54.90196 -164.84115 15071 ft 158 kts 43°
2026-05-09 07:18 54.90940 -164.82705 15071 ft 158 kts 44°
2026-05-09 07:18 54.91432 -164.81770 15070 ft 158 kts 43°
2026-05-09 07:19 54.92177 -164.80356 15063 ft 158 kts 43°
2026-05-09 07:19 54.92919 -164.78946 15062 ft 158 kts 44°
2026-05-09 07:19 54.93493 -164.77308 15063 ft 163 kts 67°
2026-05-09 07:19 54.93828 -164.75423 15066 ft 163 kts 66°
2026-05-09 07:20 54.94193 -164.73559 15067 ft 163 kts 67°
2026-05-09 07:20 54.94554 -164.71686 15068 ft 163 kts 66°
2026-05-09 07:20 54.94913 -164.69817 15068 ft 163 kts 67°
2026-05-09 07:20 54.95272 -164.67938 15067 ft 163 kts 68°
2026-05-09 07:21 54.95630 -164.66062 15067 ft 163 kts 67°
2026-05-09 07:21 54.95984 -164.64209 15067 ft 163 kts 67°
2026-05-09 07:21 54.96341 -164.62336 15067 ft 163 kts 67°
2026-05-09 07:21 54.96699 -164.60453 15067 ft 163 kts 67°
2026-05-09 07:22 54.97056 -164.58575 15068 ft 163 kts 66°
2026-05-09 07:22 54.97414 -164.56698 15068 ft 163 kts 68°
2026-05-09 07:22 54.97769 -164.54817 15064 ft 164 kts 68°
2026-05-09 07:22 54.98128 -164.52928 15059 ft 164 kts 68°
2026-05-09 07:23 54.98488 -164.51033 15059 ft 164 kts 68°
2026-05-09 07:23 54.98847 -164.49139 15060 ft 165 kts 68°
2026-05-09 07:23 54.99200 -164.47269 15059 ft 165 kts 68°
2026-05-09 07:23 54.99559 -164.45374 15060 ft 165 kts 68°
2026-05-09 07:24 54.99916 -164.43478 15065 ft 165 kts 68°
2026-05-09 07:24 55.00273 -164.41582 15065 ft 165 kts 68°
2026-05-09 07:24 55.00631 -164.39685 15065 ft 165 kts 68°
2026-05-09 07:24 55.00989 -164.37785 15066 ft 165 kts 68°
2026-05-09 07:25 55.01346 -164.35882 15066 ft 165 kts 68°
2026-05-09 07:25 55.01703 -164.33983 15066 ft 165 kts 68°
2026-05-09 07:25 55.02060 -164.32083 15066 ft 165 kts 68°
2026-05-09 07:25 55.02416 -164.30181 15066 ft 165 kts 68°
2026-05-09 07:26 55.02771 -164.28280 15064 ft 165 kts 68°
2026-05-09 07:26 55.03128 -164.26377 15061 ft 165 kts 68°
2026-05-09 07:26 55.03483 -164.24478 15061 ft 165 kts 68°
2026-05-09 07:26 55.03837 -164.22579 15061 ft 164 kts 67°
2026-05-09 07:27 55.04190 -164.20687 15058 ft 164 kts 68°
2026-05-09 07:27 55.04543 -164.18789 15058 ft 164 kts 67°
2026-05-09 07:27 55.04895 -164.16898 15058 ft 164 kts 67°
2026-05-09 07:27 55.05243 -164.15028 15058 ft 164 kts 68°
2026-05-09 07:28 55.05595 -164.13131 15060 ft 164 kts 68°
2026-05-09 07:28 55.05946 -164.11237 15060 ft 164 kts 67°
2026-05-09 07:28 55.06299 -164.09342 15060 ft 164 kts 68°
2026-05-09 07:28 55.06650 -164.07442 14995 ft 167 kts 68°
2026-05-09 07:29 55.07013 -164.05500 14820 ft 169 kts 68°
2026-05-09 07:29 55.07376 -164.03538 14645 ft 170 kts 68°
2026-05-09 07:29 55.07738 -164.01568 14476 ft 171 kts 68°
2026-05-09 07:29 55.08101 -163.99588 14306 ft 171 kts 68°
2026-05-09 07:30 55.08462 -163.97631 14139 ft 172 kts 68°
2026-05-09 07:30 55.08827 -163.95649 13970 ft 172 kts 69°
2026-05-09 07:30 55.09191 -163.93660 13802 ft 172 kts 68°
2026-05-09 07:30 55.09558 -163.91661 13634 ft 172 kts 68°
2026-05-09 07:31 55.09926 -163.89663 13457 ft 172 kts 68°
2026-05-09 07:31 55.10291 -163.87667 13267 ft 173 kts 68°
2026-05-09 07:31 55.10656 -163.85669 13076 ft 172 kts 68°
2026-05-09 07:31 55.11016 -163.83706 12890 ft 172 kts 69°
2026-05-09 07:32 55.11378 -163.81717 12703 ft 171 kts 68°
2026-05-09 07:32 55.11740 -163.79734 12517 ft 171 kts 68°
2026-05-09 07:32 55.12102 -163.77749 12325 ft 171 kts 69°
2026-05-09 07:32 55.12462 -163.75772 12140 ft 171 kts 68°
2026-05-09 07:33 55.12821 -163.73794 11957 ft 171 kts 68°
2026-05-09 07:33 55.13540 -163.69841 11597 ft 171 kts 68°
2026-05-09 07:33 55.13898 -163.67865 11415 ft 171 kts 68°
2026-05-09 07:34 55.14256 -163.65890 11235 ft 170 kts 68°
2026-05-09 07:34 55.14614 -163.63912 11057 ft 170 kts 68°
2026-05-09 07:34 55.14970 -163.61939 10880 ft 170 kts 69°
2026-05-09 07:34 55.15327 -163.59964 10703 ft 170 kts 68°
2026-05-09 07:35 55.15684 -163.57995 10531 ft 170 kts 68°
2026-05-09 07:35 55.16038 -163.56034 10399 ft 167 kts 68°
2026-05-09 07:35 55.16383 -163.54110 10297 ft 165 kts 68°
2026-05-09 07:35 55.16725 -163.52204 10187 ft 163 kts 69°
2026-05-09 07:36 55.17059 -163.50335 10087 ft 162 kts 69°
2026-05-09 07:36 55.17396 -163.48452 9987 ft 162 kts 68°
2026-05-09 07:36 55.17733 -163.46571 9888 ft 162 kts 69°
2026-05-09 07:36 55.18068 -163.44692 9781 ft 162 kts 69°
2026-05-09 07:37 55.18405 -163.42803 9662 ft 163 kts 68°
2026-05-09 07:37 55.18743 -163.40911 9534 ft 163 kts 69°
2026-05-09 07:37 55.19079 -163.39022 9396 ft 162 kts 68°
2026-05-09 07:37 55.19415 -163.37131 9263 ft 162 kts 68°
2026-05-09 07:38 55.19747 -163.35269 9126 ft 162 kts 68°
2026-05-09 07:38 55.20081 -163.33385 8990 ft 161 kts 69°
2026-05-09 07:38 55.20413 -163.31511 8856 ft 161 kts 68°
2026-05-09 07:38 55.20745 -163.29639 8721 ft 161 kts 68°
2026-05-09 07:39 55.21075 -163.27773 8595 ft 160 kts 69°
2026-05-09 07:39 55.21402 -163.25921 8518 ft 159 kts 69°
2026-05-09 07:39 55.21730 -163.24062 8441 ft 160 kts 69°
2026-05-09 07:39 55.22055 -163.22223 8363 ft 160 kts 69°
2026-05-09 07:40 55.22384 -163.20358 8283 ft 160 kts 69°
2026-05-09 07:40 55.22712 -163.18494 8205 ft 160 kts 69°
2026-05-09 07:40 55.23041 -163.16626 8128 ft 160 kts 69°
2026-05-09 07:40 55.23369 -163.14761 8048 ft 160 kts 69°
2026-05-09 07:41 55.23696 -163.12898 7973 ft 160 kts 69°
2026-05-09 07:41 55.24022 -163.11034 7890 ft 160 kts 69°
2026-05-09 07:41 55.24349 -163.09170 7812 ft 160 kts 69°
2026-05-09 07:41 55.24674 -163.07310 7734 ft 159 kts 69°
2026-05-09 07:42 55.25071 -163.05534 7632 ft 157 kts 57°
2026-05-09 07:42 55.25597 -163.03865 7527 ft 156 kts 57°
2026-05-09 07:42 55.26106 -163.02188 7423 ft 155 kts 58°
2026-05-09 07:42 55.26611 -163.00512 7319 ft 155 kts 58°
2026-05-09 07:43 55.27114 -162.98843 7216 ft 155 kts 58°
2026-05-09 07:43 55.27618 -162.97171 7113 ft 154 kts 58°
2026-05-09 07:43 55.28120 -162.95505 7011 ft 154 kts 58°
2026-05-09 07:43 55.28620 -162.93843 6910 ft 154 kts 58°
2026-05-09 07:44 55.29120 -162.92182 6812 ft 154 kts 58°
2026-05-09 07:44 55.29619 -162.90522 6710 ft 154 kts 58°
2026-05-09 07:44 55.30112 -162.88884 6613 ft 153 kts 58°
2026-05-09 07:44 55.30610 -162.87223 6511 ft 153 kts 58°
2026-05-09 07:45 55.31107 -162.85570 6408 ft 153 kts 58°
2026-05-09 07:45 55.31601 -162.83921 6308 ft 153 kts 58°
2026-05-09 07:45 55.32097 -162.82266 6208 ft 152 kts 58°
2026-05-09 07:45 55.32591 -162.80618 6106 ft 152 kts 58°
2026-05-09 07:46 55.33084 -162.78969 5999 ft 152 kts 58°
2026-05-09 07:46 55.33569 -162.77348 5896 ft 152 kts 58°
2026-05-09 07:46 55.34059 -162.75708 5787 ft 152 kts 58°
2026-05-09 07:46 55.34549 -162.74064 5680 ft 151 kts 58°
2026-05-09 07:47 55.35038 -162.72429 5577 ft 151 kts 58°
2026-05-09 07:47 55.35524 -162.70796 5469 ft 151 kts 58°
2026-05-09 07:47 55.36011 -162.69163 5359 ft 151 kts 58°
2026-05-09 07:47 55.36493 -162.67548 5255 ft 147 kts 58°
2026-05-09 07:48 55.36960 -162.65978 5148 ft 145 kts 58°
2026-05-09 07:48 55.37426 -162.64410 5040 ft 144 kts 58°
2026-05-09 07:48 55.37887 -162.62858 4927 ft 142 kts 58°
2026-05-09 07:48 55.38345 -162.61317 4826 ft 142 kts 58°
2026-05-09 07:49 55.38800 -162.59783 4720 ft 141 kts 58°
2026-05-09 07:49 55.39253 -162.58253 4615 ft 141 kts 58°
2026-05-09 07:49 55.39701 -162.56746 4514 ft 141 kts 58°
2026-05-09 07:49 55.40139 -162.55207 4403 ft 141 kts 65°
2026-05-09 07:50 55.40183 -162.53460 4293 ft 148 kts 100°
2026-05-09 07:50 55.39657 -162.51887 4183 ft 154 kts 135°
2026-05-09 07:50 55.38763 -162.50841 4081 ft 155 kts 146°
2026-05-09 07:50 55.37860 -162.49814 3980 ft 155 kts 144°
2026-05-09 07:51 55.36963 -162.48783 3869 ft 154 kts 144°
2026-05-09 07:51 55.36066 -162.47758 3763 ft 154 kts 144°
2026-05-09 07:51 55.35171 -162.46737 3658 ft 153 kts 144°
2026-05-09 07:51 55.34276 -162.45719 3552 ft 153 kts 144°
2026-05-09 07:52 55.33384 -162.44702 3444 ft 153 kts 144°
2026-05-09 07:52 55.32492 -162.43688 3343 ft 153 kts 144°
2026-05-09 07:52 55.31610 -162.42686 3243 ft 153 kts 144°
2026-05-09 07:52 55.30719 -162.41672 3136 ft 153 kts 144°
2026-05-09 07:53 55.29836 -162.40687 3019 ft 148 kts 149°
2026-05-09 07:53 55.28871 -162.40288 3000 ft 140 kts 182°
2026-05-09 07:53 55.27958 -162.40701 2998 ft 133 kts 211°
2026-05-09 07:53 55.27271 -162.41730 2992 ft 128 kts 237°
2026-05-09 07:54 55.26724 -162.42953 2998 ft 127 kts 234°
2026-05-09 07:54 55.26163 -162.44155 3003 ft 127 kts 235°
2026-05-09 07:54 55.25608 -162.45361 3007 ft 127 kts 235°
2026-05-09 07:54 55.25053 -162.46568 3001 ft 127 kts 235°
2026-05-09 07:55 55.24497 -162.47779 3006 ft 127 kts 236°
2026-05-09 07:55 55.23936 -162.48999 2941 ft 132 kts 235°
2026-05-09 07:55 55.23344 -162.50294 2770 ft 140 kts 235°
2026-05-09 07:55 55.22725 -162.51635 2569 ft 145 kts 234°
2026-05-09 07:56 55.22075 -162.53043 2355 ft 148 kts 234°
2026-05-09 07:56 55.21428 -162.54452 2138 ft 149 kts 236°
2026-05-09 07:56 55.21038 -162.56036 1936 ft 138 kts 266°
2026-05-09 07:56 55.20904 -162.57631 1741 ft 129 kts 264°
2026-05-09 07:57 55.20750 -162.59160 1551 ft 126 kts 264°
2026-05-09 07:57 55.20596 -162.60658 1367 ft 124 kts 260°
2026-05-09 07:57 55.20286 -162.62048 1199 ft 116 kts 248°
2026-05-09 07:57 55.19950 -162.63252 1072 ft 105 kts 251°
2026-05-09 07:58 55.19707 -162.64409 952 ft 98 kts 259°
2026-05-09 07:58 55.19576 -162.65532 839 ft 87 kts 269°
2026-05-09 07:58 55.19565 -162.66518 718 ft 80 kts 278°
2026-05-09 07:58 55.19621 -162.67490 604 ft 80 kts 282°
2026-05-09 07:59 55.19672 -162.68466 462 ft 81 kts 279°
2026-05-09 07:59 55.19723 -162.69427 342 ft 77 kts 279°
2026-05-09 07:59 55.19777 -162.70342 219 ft 75 kts 276°
2026-05-09 07:59 55.19818 -162.71216 146 ft 64 kts 274°
2026-05-09 08:00 55.19846 -162.71800 141 ft 33 kts 275°
2026-05-09 08:00 55.19861 -162.72107 140 ft 19 kts 279°
2026-05-09 08:00 55.19954 -162.72213 140 ft 18 kts 338°
2026-05-09 08:00 55.20076 -162.72298 140 ft 15 kts 339°
2026-05-09 08:01 55.20142 -162.72217 141 ft 15 kts 68°
2026-05-09 08:01 55.20199 -162.72060 141 ft 13 kts 49°
2026-05-09 08:01 55.20253 -162.71982 141 ft 7 kts
2026-05-09 08:01 55.20262 -162.71986 141 ft 0 kts 336°